Regional Weather Roundup
Issued by NWS

Home | Current Version | Previous Version | Graphics & Text | Print | Product List | Glossary On
Versions: 1 2 3 4 5 6 7 8 9 10 11 12 13 14 15 16 17 18 19 20 21 22 23 24 25 26 27 28 29 30 31 32 33 34 35 36 37 38 39 40 41 42 43 44 45 46 47 48 49 50
000
ASUS43 KOAX 091502
RWRNE

WEATHER ROUNDUP FOR NEBRASKA
NATIONAL WEATHER SERVICE OMAHA NE
900 AM CST FRI DEC 09 2016

NOTES: SATELLITE DATA IS BEING USED TO AUGMENT CLOUD COVER ABOVE
       12000 FEET.
       "FAIR" INDICATES FEW OR NO CLOUDS BELOW 12,000 FEET WITH NO
       SIGNIFICANT WEATHER AND/OR OBSTRUCTIONS TO VISIBILITY.

  * THESE STATIONS DO NOT REPORT WEATHER SUCH AS RAIN...SNOW OR FOG.

NEZ001>004-019>022-054>056-091600-
NEBRASKA PANHANDLE

CITY           SKY/WX    TMP DP  RH WIND       PRES   REMARKS
SCOTTSBLUFF    CLOUDY    16   8  71 E8        30.14R WCI   5
ALLIANCE       CLOUDY    10   4  76 SE5       30.16R WCI   2
CHADRON        CLOUDY     4  -2  76 N7        30.28R WCI  -8
KIMBALL        CLOUDY    12   7  79 CALM      30.08R
SIDNEY         CLOUDY    11   5  77 SW5       30.14R WCI   3
$$

NEZ057>060-069>072-079>082-091600-
SOUTHWEST NEBRASKA

CITY           SKY/WX    TMP DP  RH WIND       PRES   REMARKS
NORTH PLATTE   CLOUDY    15   5  64 SE10      30.32F WCI   2
IMPERIAL       CLOUDY    13   7  77 S9        30.26S WCI   1
LEXINGTON      CLOUDY    16   9  73 SE15      30.40S WCI   1
MCCOOK         CLOUDY    16   8  71 SE8       30.35F WCI   5
OGALLALA       CLOUDY    15   8  74 S10       30.25S WCI   2
$$

NEZ005>010-023>029-035>040-094-091600-
NORTH CENTRAL NEBRASKA

CITY           SKY/WX    TMP DP  RH WIND       PRES   REMARKS
VALENTINE      LGT SNOW   9   2  73 E9        30.37F WCI  -4
AINSWORTH      CLOUDY    10   5  79 SE8       30.38F WCI  -2
BROKEN BOW     CLOUDY    11   5  77 E10       30.40R WCI  -3
O`NEILL        CLOUDY     8   4  85 E3        30.50R
ORD            CLOUDY     9   2  73 SE7       30.47  WCI  -2
THEDFORD       CLOUDY    12   5  73 SE8       30.33S WCI   0
$$

NEZ041-046>049-061>064-073>077-083>087-091600-
SOUTH CENTRAL NEBRASKA

CITY           SKY/WX    TMP DP  RH WIND       PRES   REMARKS
GRAND ISLAND   CLOUDY    13   7  77 SE10      30.51S WCI   0
AURORA         CLOUDY    13   7  79 SE12      30.52R WCI  -1
HASTINGS       CLOUDY    14   7  73 SE10      30.50S WCI   1
HEBRON         CLOUDY    16  11  80 SE7       30.58R WCI   6
HOLDREGE       CLOUDY    15   8  72 S14       30.42F WCI   1
KEARNEY *      CLOUDY    16   7  67 SE8       30.46R WCI   5
YORK           CLOUDY    10   7  85 SE9       30.55S WCI  -2
$$

NEZ011>018-030>034-042>045-091600-
NORTHEAST NEBRASKA

CITY           SKY/WX    TMP DP  RH WIND       PRES   REMARKS
NORFOLK        CLOUDY     7   2  80 E5        30.55R WCI  -2
ALBION         CLOUDY     8   3  82 SE6       30.54R WCI  -2
BLAIR          MOSUNNY   10   6  84 CALM      30.60R
FREMONT        PTSUNNY    8   4  82 CALM      30.61R
TEKAMAH        CLOUDY     8   3  80 CALM      30.62F
WAYNE          CLOUDY     5   1  82 N3        30.59R
$$

NEZ050>053-065>068-078-088>093-091600-
SOUTHEAST NEBRASKA

CITY           SKY/WX    TMP DP  RH WIND       PRES   REMARKS
LINCOLN        CLOUDY    12   6  77 CALM      30.63R
OMAHA EPPLEY   PTSUNNY   11   4  73 CALM      30.64R
BEATRICE       CLOUDY    13   9  82 CALM      30.61R
FALLS CITY     CLOUDY    12   8  84 CALM      30.64R
NEBRASKA CITY  CLOUDY    12   5  74 CALM      30.62R
PLATTSMOUTH    CLOUDY    10   5  78 CALM      30.62R
$$

NEZ044-045-051>053-067-091600-
OMAHA AREA

CITY           SKY/WX    TMP DP  RH WIND       PRES   REMARKS
OMAHA EPPLEY   PTSUNNY   11   4  73 CALM      30.64R
BLAIR          MOSUNNY   10   6  84 CALM      30.60R
FREMONT        PTSUNNY    8   4  82 CALM      30.61R
MILLARD        MOSUNNY   14   7  75 CALM      30.63S
OFFUTT AFB     CLOUDY    11   7  84 CALM      30.63R
PLATTSMOUTH    CLOUDY    10   5  78 CALM      30.62R
WAHOO          PTSUNNY   10   4  79 CALM      30.61S
$$




USA.gov is the U.S. government's official web portal to all federal, state and local government web resources and services.